GW0500 Weather Reports


Display with metric or nautical units.
time (UTC)temp
F
wind
direction
speed
MPH
gust
MPH
rain 1hr
in
rain 24hr
in
rain mn
in
humidity
%
barometer
mb
20260504010544 51 195 1.0 6.0 0.00 0.00 0.00 85 1015.3
20260504010111 51 173 1.0 11.0 0.00 0.00 0.00 85 1015.4
20260504005547 51 140 0.0 11.0 0.00 0.00 0.00 85 1015.2
20260504005044 51 178 2.0 6.0 0.00 0.00 0.00 85 1015.7
20260504004553 51 140 1.0 5.0 0.00 0.00 0.00 84 1015.3
20260504004051 52 180 0.0 4.0 0.00 0.00 0.00 84 1015.3
20260504003548 52 87 0.0 10.0 0.00 0.00 0.00 83 1015.3
20260504003051 52 0 1.0 10.0 0.00 0.00 0.00 83 1015.2
20260504002547 52 79 2.0 7.0 0.00 0.00 0.00 82 1015.2
20260504002048 53 228 0.0 7.0 0.00 0.00 0.00 82 1015.2
20260504001601 53 152 2.0 7.0 0.00 0.00 0.00 82 1015.2
20260504001048 53 159 1.0 9.0 0.00 0.00 0.00 81 1015.0
20260504000550 54 0 2.0 9.0 0.00 0.00 0.00 80 1015.1
20260504000057 54 200 2.0 8.0 0.00 0.00 0.00 80 1015.3
20260503235551 54 177 1.0 6.0 0.00 0.00 0.00 81 1015.0
20260503235048 53 179 1.0 7.0 0.00 0.00 0.00 82 1015.1
20260503234550 53 138 1.0 7.0 0.00 0.00 0.00 81 1015.2
20260503234048 53 228 2.0 8.0 0.00 0.00 0.00 81 1015.3
20260503233548 53 181 2.0 8.0 0.00 0.00 0.00 81 1015.3
20260503233100 53 0 1.0 12.0 0.00 0.00 0.00 81 1015.4
20260503232544 53 141 3.0 12.0 0.00 0.00 0.00 81 1015.4
20260503232047 53 169 3.0 9.0 0.00 0.00 0.00 80 1015.5
20260503231552 53 162 1.0 6.0 0.00 0.00 0.00 82 1015.5
20260503231044 53 138 2.0 7.0 0.00 0.00 0.00 82 1015.5
20260503230549 53 0 2.0 7.0 0.00 0.00 0.00 83 1015.6
20260503230055 53 201 2.0 7.0 0.00 0.00 0.00 83 1015.7
20260503225549 53 137 1.0 6.0 0.00 0.00 0.00 84 1015.6
20260503225048 53 125 2.0 6.0 0.00 0.00 0.00 84 1015.6
20260503224556 53 208 2.0 6.0 0.00 0.00 0.00 83 1015.6
20260503224048 53 270 1.0 9.0 0.00 0.00 0.00 83 1015.6
20260503223548 53 44 1.0 9.0 0.00 0.00 0.00 84 1015.7
20260503223051 53 56 2.0 7.0 0.00 0.00 0.00 83 1015.7
20260503222548 53 163 1.0 6.0 0.00 0.00 0.00 84 1015.7
20260503222047 53 178 1.0 9.0 0.00 0.00 0.00 82 1015.7
20260503221600 54 209 1.0 9.0 0.00 0.00 0.00 82 1015.8
20260503221044 54 288 2.0 7.0 0.00 0.00 0.00 82 1015.9
20260503220547 54 171 3.0 7.0 0.00 0.00 0.00 82 1015.9
20260503220105 54 181 1.0 7.0 0.00 0.00 0.00 82 1015.8
20260503215547 54 92 3.0 7.0 0.00 0.00 0.00 81 1015.9
20260503215048 55 150 2.0 5.0 0.00 0.00 0.00 81 1015.9
20260503214554 55 148 1.0 7.0 0.00 0.00 0.00 81 1015.9
20260503214049 55 114 1.0 10.0 0.00 0.00 0.00 80 1015.9
20260503213550 55 186 2.0 10.0 0.00 0.00 0.00 80 1015.9
20260503213052 55 148 1.0 5.0 0.00 0.00 0.00 80 1015.9
20260503212549 55 111 1.0 4.0 0.00 0.00 0.00 78 1016.0
20260503212047 55 153 0.0 9.0 0.00 0.00 0.00 79 1016.1
20260503211552 55 90 2.0 9.0 0.00 0.00 0.00 78 1016.1
20260503211046 55 145 2.0 6.0 0.00 0.00 0.00 80 1016.2
20260503210547 55 92 2.0 6.0 0.00 0.00 0.00 78 1016.3
20260503210055 54 0 1.0 6.0 0.00 0.00 0.00 80 1016.3
20260503205544 54 178 1.0 10.0 0.00 0.00 0.00 81 1016.4
20260503205043 54 186 2.0 10.0 0.00 0.00 0.00 82 1016.4
20260503204602 54 207 1.0 4.0 0.00 0.00 0.00 82 1016.4
20260503204048 54 148 1.0 7.0 0.00 0.00 0.00 82 1016.4
20260503203545 54 115 1.0 8.0 0.00 0.00 0.00 83 1016.5
20260503203100 54 344 2.0 8.0 0.00 0.00 0.00 81 1016.5
20260503202546 55 219 1.0 4.0 0.00 0.00 0.00 80 1016.5
20260503202046 55 148 1.0 4.0 0.00 0.00 0.00 79 1016.5
20260503201554 55 202 1.0 7.0 0.00 0.00 0.00 79 1016.7
20260503201045 55 192 0.0 7.0 0.00 0.00 0.00 79 1016.7
20260503200545 55 166 2.0 10.0 0.00 0.00 0.00 78 1016.8
20260503200051 56 97 1.0 10.0 0.00 0.00 0.00 78 1016.8
20260503195546 57 186 2.0 6.0 0.00 0.00 0.00 77 1016.8
20260503195045 57 141 2.0 10.0 0.00 0.00 0.00 76 1016.7
20260503194611 58 309 2.0 10.0 0.00 0.00 0.00 73 1016.8
20260503194044 59 144 1.0 10.0 0.00 0.00 0.00 73 1016.8
20260503193545 60 143 3.0 10.0 0.00 0.00 0.00 71 1016.8
20260503193054 62 210 3.0 9.0 0.00 0.00 0.00 69 1016.8
20260503192544 62 0 3.0 6.0 0.00 0.00 0.00 68 1016.7
20260503192046 63 169 3.0 7.0 0.00 0.00 0.00 66 1016.7
20260503191558 64 189 2.0 7.0 0.00 0.00 0.00 66 1016.5
20260503191046 64 186 3.0 6.0 0.00 0.00 0.00 63 1016.5
20260503190546 64 158 2.0 6.0 0.00 0.00 0.00 61 1016.4
20260503190059 65 152 1.0 7.0 0.00 0.00 0.00 60 1016.5
20260503185545 65 221 2.0 9.0 0.00 0.00 0.00 55 1016.5
20260503185044 66 174 3.0 9.0 0.00 0.00 0.00 54 1016.4
20260503184557 65 178 2.0 8.0 0.00 0.00 0.00 51 1016.4
20260503184044 66 161 2.0 8.0 0.00 0.00 0.00 55 1016.5
20260503183544 65 176 3.0 7.0 0.00 0.00 0.00 49 1016.5
20260503183104 65 196 1.0 6.0 0.00 0.00 0.00 53 1016.6
20260503182543 65 184 2.0 6.0 0.00 0.00 0.00 54 1016.5
20260503182046 65 153 1.0 5.0 0.00 0.00 0.00 52 1016.6
20260503181558 64 179 1.0 4.0 0.00 0.00 0.00 51 1016.6
20260503181047 63 0 0.0 3.0 0.00 0.00 0.00 57 1016.7
20260503180547 63 0 1.0 5.0 0.00 0.00 0.00 62 1016.7
20260503180105 62 0 1.0 5.0 0.00 0.00 0.00 62 1016.8
20260503175546 62 153 1.0 5.0 0.00 0.00 0.00 63 1017.0
20260503175045 62 165 1.0 3.0 0.00 0.00 0.00 63 1016.9
20260503174551 62 140 1.0 3.0 0.00 0.00 0.00 64 1017.0
20260503174045 62 163 0.0 3.0 0.00 0.00 0.00 65 1017.0
20260503173546 62 118 0.0 6.0 0.00 0.00 0.00 65 1016.9
20260503173142 62 0 2.0 6.0 0.00 0.00 0.00 65 1016.9
20260503172544 63 146 1.0 3.0 0.00 0.00 0.00 63 1016.8
20260503172044 63 146 1.0 4.0 0.00 0.00 0.00 61 1016.8
20260503171550 63 116 1.0 5.0 0.00 0.00 0.00 61 1016.8
20260503171045 62 161 1.0 5.0 0.00 0.00 0.00 62 1016.7
20260503170547 62 161 1.0 4.0 0.00 0.00 0.00 62 1016.6
20260503150548 46 0 0.0 3.0 0.00 0.00 0.00 85 1016.4
20260503140106 45 0 0.0 3.0 0.00 0.00 0.00 80 1016.3
20260503131045 49 0 0.0 1.0 0.00 0.00 0.00 58 1015.3
20260503130545 50 0 0.0 1.0 0.00 0.00 0.00 58 1015.1
20260503130104 50 30 0.0 1.0 0.00 0.00 0.00 60 1014.9
20260503110547 51 0 0.0 1.0 0.00 0.00 0.00 52 1015.5
20260503081557 54 0 0.0 1.0 0.00 0.00 0.00 46 1017.0
20260503081047 54 0 0.0 1.0 0.00 0.00 0.00 49 1017.1
20260503080547 54 0 0.0 0.0 0.00 0.00 0.00 49 1017.2
20260503072545 54 0 0.0 0.0 0.00 0.00 0.00 49 1017.5
20260503072046 54 0 0.0 1.0 0.00 0.00 0.00 47 1017.6
20260503071551 54 0 0.0 1.0 0.00 0.00 0.00 48 1017.5
20260503071043 54 0 0.0 1.0 0.00 0.00 0.00 47 1017.5
20260503070545 55 0 0.0 1.0 0.00 0.00 0.00 46 1017.6
20260503055044 55 0 0.0 1.0 0.00 0.00 0.00 48 1017.8
20260503054550 55 0 0.0 1.0 0.00 0.00 0.00 50 1017.8
20260503054044 55 77 0.0 0.0 0.00 0.00 0.00 48 1017.9
20260503053550 55 0 0.0 0.0 0.00 0.00 0.00 48 1017.8
20260503053052 55 0 0.0 1.0 0.00 0.00 0.00 48 1017.8
20260503052545 55 0 0.0 1.0 0.00 0.00 0.00 49 1017.9
20260503052048 55 0 0.0 1.0 0.00 0.00 0.00 50 1017.9
20260503051555 55 0 0.0 0.0 0.00 0.00 0.00 47 1017.9
20260503051045 55 0 0.0 1.0 0.00 0.00 0.00 49 1017.8
20260503050545 55 0 0.0 1.0 0.00 0.00 0.00 49 1017.9
20260503050051 55 0 0.0 1.0 0.00 0.00 0.00 49 1017.9
20260503045546 55 0 0.0 0.0 0.00 0.00 0.00 48 1017.8
20260503045045 55 0 0.0 0.0 0.00 0.00 0.00 49 1017.9
20260503044553 55 0 0.0 1.0 0.00 0.00 0.00 47 1017.9
20260503044047 55 0 0.0 1.0 0.00 0.00 0.00 49 1017.7
20260503043545 55 0 0.0 1.0 0.00 0.00 0.00 48 1017.7
20260503043049 55 0 0.0 1.0 0.00 0.00 0.00 48 1017.6
20260503042726 55 0 0.0 1.0 0.00 0.00 0.00 47 1017.6
20260503042044 55 0 0.0 1.0 0.00 0.00 0.00 48 1017.4
20260503041559 55 0 0.0 1.0 0.00 0.00 0.00 48 1017.4
20260503041049 55 0 0.0 1.0 0.00 0.00 0.00 48 1017.4
20260503040544 55 77 0.0 1.0 0.00 0.00 0.00 53 1017.3
20260503040100 55 0 0.0 2.0 0.00 0.00 0.00 51 1017.3
20260503035545 55 0 0.0 2.0 0.00 0.00 0.00 53 1017.4
20260503035045 55 77 0.0 2.0 0.00 0.00 0.00 51 1017.3
20260503034555 56 0 0.0 2.0 0.00 0.00 0.00 50 1017.3
20260503034047 56 0 0.0 2.0 0.00 0.00 0.00 50 1017.2
20260503033544 56 0 0.0 2.0 0.00 0.00 0.00 53 1017.1
20260503033055 56 0 0.0 1.0 0.00 0.00 0.00 52 1017.0
20260503032545 57 0 0.0 1.0 0.00 0.00 0.00 51 1016.9
20260503032046 57 0 0.0 0.0 0.00 0.00 0.00 53 1017.0
20260503031557 57 0 0.0 0.0 0.00 0.00 0.00 56 1017.0
20260503031045 58 0 0.0 0.0 0.00 0.00 0.00 54 1017.0
20260503030544 58 0 0.0 1.0 0.00 0.00 0.00 55 1017.0
20260503030100 58 0 0.0 1.0 0.00 0.00 0.00 56 1017.0
20260503025544 59 77 0.0 1.0 0.00 0.00 0.00 53 1016.9
20260503025045 59 0 0.0 1.0 0.00 0.00 0.00 54 1017.1
20260503024554 60 0 0.0 1.0 0.00 0.00 0.00 54 1016.9
20260503024044 60 0 0.0 1.0 0.00 0.00 0.00 59 1016.9
20260503023545 61 0 0.0 1.0 0.00 0.00 0.00 65 1016.9
20260503023057 61 0 0.0 1.0 0.00 0.00 0.00 66 1016.8
20260503022544 62 0 0.0 0.0 0.00 0.00 0.00 65 1016.8
20260503022045 62 0 0.0 1.0 0.00 0.00 0.00 63 1016.8
20260503021551 63 0 0.0 1.0 0.00 0.00 0.00 62 1016.6
20260503021045 63 0 0.0 1.0 0.00 0.00 0.00 61 1016.7
20260503020545 64 0 0.0 1.0 0.00 0.00 0.00 60 1016.7
20260503020058 64 0 0.0 1.0 0.00 0.00 0.00 60 1016.7
20260503015545 65 0 0.0 1.0 0.00 0.00 0.00 59 1016.7
20260503015045 65 0 0.0 0.0 0.00 0.00 0.00 57 1016.6
20260503014554 66 0 0.0 1.0 0.00 0.00 0.00 57 1016.5
20260503014044 66 0 0.0 1.0 0.00 0.00 0.00 54 1016.5
20260503013545 67 0 0.0 2.0 0.00 0.00 0.00 55 1016.5
20260503013056 67 0 0.0 2.0 0.00 0.00 0.00 52 1016.6
20260503012545 67 79 0.0 2.0 0.00 0.00 0.00 49 1016.5
20260503012048 67 203 0.0 2.0 0.00 0.00 0.00 50 1016.5
20260503011603 67 203 0.0 3.0 0.00 0.00 0.00 51 1016.5
20260503011043 67 203 0.0 6.0 0.00 0.00 0.00 57 1016.5